Time,TemperatureF,DewpointF,PressureIn,WindDirection,WindDirectionDegrees,WindSpeedMPH,WindSpeedGustMPH,Humidity,HourlyPrecipIn,Conditions,Clouds,dailyrainin,SoftwareType,DateUTC
2013-04-19 00:08:00,17.9,8.0,30.45,WSW,247,15.0,21.0,66,0.00,,,0.00,weatherlink.com 1.10,2013-04-19 06:08:00,
2013-04-19 00:23:00,18.2,9.0,30.44,SSW,211,4.0,21.0,66,0.00,,,0.00,weatherlink.com 1.10,2013-04-19 06:23:00,
2013-04-19 00:38:00,18.5,9.0,30.43,WSW,256,4.0,26.0,66,0.00,,,0.00,weatherlink.com 1.10,2013-04-19 06:38:00,
2013-04-19 00:53:00,18.4,9.0,30.43,SSE,148,12.0,23.0,67,0.00,,,0.00,weatherlink.com 1.10,2013-04-19 06:53:00,
2013-04-19 01:08:00,18.7,9.0,30.43,SW,218,5.0,17.0,66,0.00,,,0.00,weatherlink.com 1.10,2013-04-19 07:08:00,
2013-04-19 01:23:00,18.8,9.0,30.43,SE,134,1.0,7.0,65,0.00,,,0.00,weatherlink.com 1.10,2013-04-19 07:23:00,
2013-04-19 01:38:00,19.0,9.0,30.43,East,97,4.0,13.0,64,0.00,,,0.00,weatherlink.com 1.10,2013-04-19 07:38:00,
2013-04-19 01:53:00,19.0,9.0,30.41,East,100,5.0,14.0,64,0.00,,,0.00,weatherlink.com 1.10,2013-04-19 07:53:00,
2013-04-19 02:08:00,19.2,9.0,30.39,SSE,153,3.0,15.0,64,0.00,,,0.00,weatherlink.com 1.10,2013-04-19 08:08:00,
2013-04-19 02:23:00,19.9,9.0,30.37,South,172,4.0,24.0,63,0.00,,,0.00,weatherlink.com 1.10,2013-04-19 08:23:00,
2013-04-19 02:38:00,20.5,9.0,30.37,SW,222,17.0,36.0,62,0.00,,,0.00,weatherlink.com 1.10,2013-04-19 08:38:00,
2013-04-19 02:53:00,20.9,10.0,30.36,WSW,245,18.0,43.0,62,0.00,,,0.00,weatherlink.com 1.10,2013-04-19 08:53:00,
2013-04-19 03:08:00,21.2,10.0,30.35,WSW,242,17.0,53.0,61,0.00,,,0.00,weatherlink.com 1.10,2013-04-19 09:08:00,
2013-04-19 03:23:00,21.0,9.0,30.33,WNW,291,10.0,32.0,61,0.00,,,0.00,weatherlink.com 1.10,2013-04-19 09:23:00,
2013-04-19 03:38:00,21.0,9.0,30.34,WSW,249,13.0,34.0,61,0.00,,,0.00,weatherlink.com 1.10,2013-04-19 09:38:00,
2013-04-19 03:53:00,20.9,10.0,30.35,SSW,201,3.0,27.0,62,0.00,,,0.00,weatherlink.com 1.10,2013-04-19 09:53:00,
2013-04-19 04:08:00,20.8,10.0,30.36,West,263,12.0,23.0,62,0.00,,,0.00,weatherlink.com 1.10,2013-04-19 10:08:00,
2013-04-19 04:23:00,20.8,10.0,30.35,WNW,283,8.0,22.0,62,0.00,,,0.00,weatherlink.com 1.10,2013-04-19 10:23:00,
2013-04-19 04:38:00,20.6,10.0,30.36,WSW,255,10.0,21.0,63,0.00,,,0.00,weatherlink.com 1.10,2013-04-19 10:38:00,
2013-04-19 04:53:00,20.7,9.0,30.35,East,94,2.0,23.0,62,0.00,,,0.00,weatherlink.com 1.10,2013-04-19 10:53:00,
2013-04-19 05:08:00,20.5,10.0,30.35,WSW,248,6.0,29.0,65,0.00,,,0.00,weatherlink.com 1.10,2013-04-19 11:08:00,
2013-04-19 05:23:00,20.5,10.0,30.34,SW,236,11.0,27.0,65,0.00,,,0.00,weatherlink.com 1.10,2013-04-19 11:23:00,
2013-04-19 05:38:00,20.9,10.0,30.34,SW,236,12.0,28.0,64,0.00,,,0.00,weatherlink.com 1.10,2013-04-19 11:38:00,
2013-04-19 05:53:00,21.0,10.0,30.34,SW,217,3.0,27.0,63,0.00,,,0.00,weatherlink.com 1.10,2013-04-19 11:53:00,
2013-04-19 06:08:00,21.0,10.0,30.33,West,273,11.0,21.0,63,0.00,,,0.00,weatherlink.com 1.10,2013-04-19 12:08:00,
2013-04-19 06:24:00,21.6,10.0,30.30,WNW,285,14.0,34.0,61,0.00,,,0.00,weatherlink.com 1.10,2013-04-19 12:24:00,
2013-04-19 06:39:00,21.9,10.0,30.30,West,269,30.0,34.0,60,0.00,,,0.00,weatherlink.com 1.10,2013-04-19 12:39:00,
2013-04-19 06:54:00,22.3,11.0,30.31,SW,225,15.0,28.0,61,0.00,,,0.00,weatherlink.com 1.10,2013-04-19 12:54:00,
2013-04-19 07:09:00,23.0,11.0,30.31,SW,232,22.0,38.0,60,0.00,,,0.00,weatherlink.com 1.10,2013-04-19 13:09:00,
2013-04-19 07:24:00,23.9,11.0,30.34,South,183,8.0,23.0,58,0.00,,,0.00,weatherlink.com 1.10,2013-04-19 13:24:00,
2013-04-19 07:39:00,24.6,11.0,30.34,NE,46,4.0,18.0,56,0.00,,,0.00,weatherlink.com 1.10,2013-04-19 13:39:00,
2013-04-19 07:54:00,24.8,11.0,30.34,East,91,6.0,21.0,56,0.00,,,0.00,weatherlink.com 1.10,2013-04-19 13:54:00,
2013-04-19 08:09:00,25.5,11.0,30.34,East,97,5.0,11.0,55,0.00,,,0.00,weatherlink.com 1.10,2013-04-19 14:09:00,
2013-04-19 08:24:00,26.3,12.0,30.34,ENE,65,3.0,15.0,54,0.00,,,0.00,weatherlink.com 1.10,2013-04-19 14:24:00,
2013-04-19 08:39:00,25.9,11.0,30.33,ESE,113,5.0,16.0,54,0.00,,,0.00,weatherlink.com 1.10,2013-04-19 14:39:00,
2013-04-19 08:54:00,26.7,11.0,30.34,SSE,158,4.0,11.0,52,0.00,,,0.00,weatherlink.com 1.10,2013-04-19 14:54:00,
2013-04-19 09:09:00,27.1,11.0,30.33,SSW,212,4.0,15.0,52,0.00,,,0.00,weatherlink.com 1.10,2013-04-19 15:09:00,
2013-04-19 09:24:00,27.9,11.0,30.33,WNW,287,7.0,12.0,50,0.00,,,0.00,weatherlink.com 1.10,2013-04-19 15:24:00,
2013-04-19 09:39:00,26.6,11.0,30.32,WSW,248,16.0,22.0,53,0.00,,,0.00,weatherlink.com 1.10,2013-04-19 15:39:00,
2013-04-19 09:54:00,25.0,11.0,30.32,SW,229,3.0,20.0,55,0.00,,,0.00,weatherlink.com 1.10,2013-04-19 15:54:00,
2013-04-19 10:09:00,26.3,12.0,30.32,WSW,245,3.0,12.0,55,0.00,,,0.00,weatherlink.com 1.10,2013-04-19 16:09:00,
2013-04-19 10:24:00,26.1,11.0,30.32,West,267,7.0,11.0,54,0.00,,,0.00,weatherlink.com 1.10,2013-04-19 16:24:00,
2013-04-19 10:39:00,25.8,12.0,30.32,SW,231,7.0,16.0,55,0.00,,,0.00,weatherlink.com 1.10,2013-04-19 16:39:00,
2013-04-19 10:54:00,26.5,11.0,30.32,West,259,3.0,12.0,53,0.00,,,0.00,weatherlink.com 1.10,2013-04-19 16:54:00,
2013-04-19 11:09:00,27.5,11.0,30.32,SSE,166,4.0,11.0,51,0.00,,,0.00,weatherlink.com 1.10,2013-04-19 17:09:00,
2013-04-19 11:24:00,30.6,13.0,30.32,WNW,302,0.0,9.0,48,0.00,,,0.00,weatherlink.com 1.10,2013-04-19 17:24:00,
2013-04-19 11:39:00,31.2,12.0,30.32,WNW,294,9.0,19.0,45,0.00,,,0.00,weatherlink.com 1.10,2013-04-19 17:39:00,
2013-04-19 11:54:00,31.0,12.0,30.31,WNW,302,5.0,14.0,46,0.00,,,0.00,weatherlink.com 1.10,2013-04-19 17:54:00,
2013-04-19 12:09:00,29.9,12.0,30.30,NW,306,9.0,16.0,48,0.00,,,0.00,weatherlink.com 1.10,2013-04-19 18:09:00,
2013-04-19 12:24:00,31.1,13.0,30.29,NW,323,7.0,15.0,48,0.00,,,0.00,weatherlink.com 1.10,2013-04-19 18:24:00,
2013-04-19 12:39:00,30.7,13.0,30.29,West,264,7.0,17.0,48,0.00,,,0.00,weatherlink.com 1.10,2013-04-19 18:39:00,
2013-04-19 12:54:00,30.9,13.0,30.27,West,281,6.0,21.0,48,0.00,,,0.00,weatherlink.com 1.10,2013-04-19 18:54:00,
2013-04-19 13:09:00,31.0,14.0,30.26,WSW,248,6.0,23.0,50,0.00,,,0.00,weatherlink.com 1.10,2013-04-19 19:09:00,
2013-04-19 13:24:00,31.0,14.0,30.26,WNW,282,4.0,27.0,50,0.00,,,0.00,weatherlink.com 1.10,2013-04-19 19:24:00,
2013-04-19 13:39:00,31.1,14.0,30.26,West,262,2.0,30.0,50,0.00,,,0.00,weatherlink.com 1.10,2013-04-19 19:39:00,
2013-04-19 13:54:00,31.9,15.0,30.25,West,265,6.0,13.0,51,0.00,,,0.00,weatherlink.com 1.10,2013-04-19 19:54:00,
2013-04-19 14:09:00,32.1,15.0,30.24,West,263,4.0,16.0,49,0.00,,,0.00,weatherlink.com 1.10,2013-04-19 20:09:00,
2013-04-19 14:24:00,32.5,15.0,30.23,WNW,282,7.0,23.0,49,0.00,,,0.00,weatherlink.com 1.10,2013-04-19 20:24:00,
2013-04-19 14:39:00,33.3,17.0,30.23,WSW,248,12.0,15.0,51,0.00,,,0.00,weatherlink.com 1.10,2013-04-19 20:39:00,
2013-04-19 14:55:00,33.9,17.0,30.23,SW,217,13.0,17.0,51,0.00,,,0.00,weatherlink.com 1.10,2013-04-19 20:55:00,
2013-04-19 15:10:00,33.8,17.0,30.21,WSW,256,10.0,20.0,51,0.00,,,0.00,weatherlink.com 1.10,2013-04-19 21:10:00,
2013-04-19 15:25:00,33.8,16.0,30.21,WSW,248,12.0,18.0,49,0.00,,,0.00,weatherlink.com 1.10,2013-04-19 21:25:00,
2013-04-19 15:40:00,35.4,17.0,30.20,WNW,291,11.0,23.0,48,0.00,,,0.00,weatherlink.com 1.10,2013-04-19 21:40:00,
2013-04-19 15:55:00,34.8,17.0,30.19,WNW,285,8.0,19.0,48,0.00,,,0.00,weatherlink.com 1.10,2013-04-19 21:55:00,
2013-04-19 16:10:00,35.8,18.0,30.17,SW,235,7.0,15.0,48,0.00,,,0.00,weatherlink.com 1.10,2013-04-19 22:10:00,
2013-04-19 16:25:00,36.5,18.0,30.17,West,276,12.0,24.0,47,0.00,,,0.00,weatherlink.com 1.10,2013-04-19 22:25:00,
2013-04-19 16:40:00,36.0,18.0,30.17,WSW,240,15.0,19.0,49,0.00,,,0.00,weatherlink.com 1.10,2013-04-19 22:40:00,
2013-04-19 16:55:00,37.1,19.0,30.17,West,276,15.0,16.0,48,0.00,,,0.00,weatherlink.com 1.10,2013-04-19 22:55:00,
2013-04-19 17:10:00,37.5,18.0,30.16,SW,231,5.0,19.0,45,0.00,,,0.00,weatherlink.com 1.10,2013-04-19 23:10:00,
2013-04-19 17:25:00,37.4,18.0,30.15,WSW,245,4.0,18.0,46,0.00,,,0.00,weatherlink.com 1.10,2013-04-19 23:25:00,
2013-04-19 17:40:00,36.3,18.0,30.15,WSW,252,8.0,23.0,47,0.00,,,0.00,weatherlink.com 1.10,2013-04-19 23:40:00,
2013-04-19 17:55:00,35.4,17.0,30.15,West,280,8.0,16.0,48,0.00,,,0.00,weatherlink.com 1.10,2013-04-19 23:55:00,
2013-04-19 18:10:00,34.1,18.0,30.14,West,276,5.0,23.0,51,0.00,,,0.00,weatherlink.com 1.10,2013-04-20 00:10:00,
2013-04-19 18:25:00,33.6,17.0,30.14,West,263,3.0,23.0,51,0.00,,,0.00,weatherlink.com 1.10,2013-04-20 00:25:00,
2013-04-19 18:40:00,33.7,17.0,30.15,West,281,7.0,14.0,50,0.00,,,0.00,weatherlink.com 1.10,2013-04-20 00:40:00,
2013-04-19 18:55:00,33.1,17.0,30.14,West,259,7.0,21.0,51,0.00,,,0.00,weatherlink.com 1.10,2013-04-20 00:55:00,
2013-04-19 19:10:00,32.7,17.0,30.12,WNW,293,5.0,24.0,53,0.00,,,0.00,weatherlink.com 1.10,2013-04-20 01:10:00,
2013-04-19 19:25:00,32.4,17.0,30.11,WSW,240,12.0,23.0,53,0.00,,,0.00,weatherlink.com 1.10,2013-04-20 01:25:00,
2013-04-19 19:40:00,32.0,17.0,30.13,West,263,6.0,19.0,54,0.00,,,0.00,weatherlink.com 1.10,2013-04-20 01:40:00,
2013-04-19 19:55:00,31.6,17.0,30.13,WSW,252,8.0,20.0,56,0.00,,,0.00,weatherlink.com 1.10,2013-04-20 01:55:00,
2013-04-19 20:10:00,31.3,18.0,30.13,WSW,249,6.0,19.0,57,0.00,,,0.00,weatherlink.com 1.10,2013-04-20 02:10:00,
2013-04-19 20:25:00,31.2,18.0,30.14,WNW,288,5.0,16.0,59,0.00,,,0.00,weatherlink.com 1.10,2013-04-20 02:25:00,
2013-04-19 20:55:00,30.8,19.0,30.15,West,263,2.0,14.0,61,0.00,,,0.00,weatherlink.com 1.10,2013-04-20 02:55:00,
2013-04-19 21:10:00,30.6,19.0,30.15,WSW,241,5.0,20.0,62,0.00,,,0.00,weatherlink.com 1.10,2013-04-20 03:10:00,
2013-04-19 21:25:00,30.5,19.0,30.15,SW,233,8.0,15.0,63,0.00,,,0.00,weatherlink.com 1.10,2013-04-20 03:25:00,
2013-04-19 21:40:00,30.4,20.0,30.15,WSW,239,6.0,12.0,65,0.00,,,0.00,weatherlink.com 1.10,2013-04-20 03:40:00,
2013-04-19 21:55:00,30.1,20.0,30.16,SE,125,3.0,12.0,65,0.00,,,0.00,weatherlink.com 1.10,2013-04-20 03:55:00,
2013-04-19 22:10:00,29.7,20.0,30.15,ESE,113,1.0,5.0,67,0.00,,,0.00,weatherlink.com 1.10,2013-04-20 04:10:00,
2013-04-19 22:25:00,29.6,21.0,30.14,NE,46,3.0,13.0,69,0.00,,,0.00,weatherlink.com 1.10,2013-04-20 04:25:00,
2013-04-19 22:40:00,29.2,21.0,30.14,West,259,3.0,9.0,70,0.00,,,0.00,weatherlink.com 1.10,2013-04-20 04:40:00,
2013-04-19 22:55:00,28.7,22.0,30.12,SE,125,2.0,9.0,75,0.00,,,0.00,weatherlink.com 1.10,2013-04-20 04:55:00,
2013-04-19 23:10:00,28.3,22.0,30.12,West,259,4.0,11.0,77,0.00,,,0.00,weatherlink.com 1.10,2013-04-20 05:10:00,
2013-04-19 23:25:00,27.9,23.0,30.12,SSE,160,6.0,11.0,81,0.00,,,0.00,weatherlink.com 1.10,2013-04-20 05:25:00,
2013-04-19 23:40:00,27.7,23.0,30.11,WSW,253,3.0,14.0,81,0.00,,,0.00,weatherlink.com 1.10,2013-04-20 05:40:00,
2013-04-19 23:56:00,27.8,22.0,30.11,SW,224,0.0,7.0,80,0.00,,,0.00,weatherlink.com 1.10,2013-04-20 05:56:00,